Regional Weather Roundup
Issued by NWS

Home | Current Version | Previous Version | Text Only | Print | Product List | Glossary On
Versions: 1 2 3 4 5 6 7 8 9 10 11 12 13 14 15 16 17 18 19 20 21 22 23 24 25 26 27 28 29 30 31 32 33 34 35 36 37 38 39 40 41 42 43 44 45 46 47 48 49 50
000
ASUS45 KCYS 310610
RWRWY

WYOMING REGIONAL WEATHER ROUNDUP
NATIONAL WEATHER SERVICE CHEYENNE WY
1200 AM MDT TUE MAY 31 2016

NOTE:  "FAIR" INDICATES FEW OR NO CLOUDS BELOW 12,000 FEET
WITH NO SIGNIFICANT WEATHER AND/OR OBSTRUCTIONS TO VISIBILITY.

WYZ001-310700-
YELLOWSTONE NATIONAL PARK

CITY           SKY/WX    TMP DP  RH WIND       PRES   REMARKS
LK YELLOWSTONE   N/A     31  24  75 CALM      30.26S
6HR MIN TEMP:  31; 6HR MAX TEMP:  55;

W YELLOWSTONE  NOT AVBL

$$
WYZ002>013-054>058-071-098>099-310700-
NORTHERN WYOMING

CITY           SKY/WX    TMP DP  RH WIND       PRES   REMARKS
JACKSON        FAIR      45  37  76 NE5       30.17S
CODY           MOCLDY    48  34  57 N13       30.18S
GREYBULL       FAIR      53  37  54 W14       30.13R
6HR MIN TEMP:  53; 6HR MAX TEMP:  65;

WORLAND        CLOUDY    54  35  48 NW9       30.13R
6HR MIN TEMP:  54; 6HR MAX TEMP:  65;

SHERIDAN       FAIR      42  39  89 SW6       30.12F
6HR MIN TEMP:  41; 6HR MAX TEMP:  55; 6HR PCP: TRACE;

BUFFALO        FAIR      46  41  82 CALM      30.14F
6HR MIN TEMP:  43; 6HR MAX TEMP:  51; 6HR PCP: TRACE;

GILLETTE       FAIR      39  38  96 W6        30.11F WCI  35
6HR MIN TEMP:  39; 6HR MAX TEMP:  52; 6HR PCP: TRACE;

HULETT         FAIR      46  32  57 CALM      30.11F
NEWCASTLE      FAIR      46  37  71 NW12      30.11R

$$
WYZ014>020-022>026-101>103-310700-
CENTRAL WYOMING

CITY           SKY/WX    TMP DP  RH WIND       PRES   REMARKS
BIG PINEY      FAIR     N/A N/A N/A N10       30.19S
PINEDALE       FAIR      37  32  81 N7        30.19S WCI  32
DUBOIS         MOCLDY    41  32  70 W7        30.18S
LANDER         CLOUDY    52  38  58 CALM      30.15F
6HR MIN TEMP:  51; 6HR MAX TEMP:  70;

RIVERTON       CLOUDY    53  38  56 SE8       30.17S
6HR MIN TEMP:  53; 6HR MAX TEMP:  68;

CASPER         CLOUDY    48  36  63 E10       30.18F
6HR MIN TEMP:  48; 6HR MAX TEMP:  54;

DOUGLAS          N/A    N/A N/A N/A MISG      30.18R

$$
WYZ021-027>030-104>119-310700-
SOUTHERN WYOMING

CITY           SKY/WX    TMP DP  RH WIND       PRES   REMARKS
EVANSTON       FAIR      51  37  58 N6        30.20S
6HR MIN TEMP:  50; 6HR MAX TEMP:  64;

KEMMERER         N/A     41  30  65 N7        30.21S
FORT BRIDGER   CLEAR     52  32  46 CALM      30.22S
ROCK SPRINGS   FAIR      47  36  65 NE10      30.18R
6HR MIN TEMP:  47; 6HR MAX TEMP:  65;

DIXON          FAIR      44  32  63 CALM      30.16F
RAWLINS        FAIR      44  38  79 N7        30.18R
6HR MIN TEMP:  44; 6HR MAX TEMP:  68;

SARATOGA       FAIR      43  41  93 W8        30.15F
LARAMIE        FAIR      41  38  89 NW9       30.15R
6HR MIN TEMP:  41; 6HR MAX TEMP:  65;

CHEYENNE       CLOUDY    47  43  86 N20G30    30.15R
6HR MIN TEMP:  47; 6HR MAX TEMP:  67; 6HR PCP: TRACE;

TORRINGTON     CLOUDY    51  42  71 NW9       30.11R
6HR MIN TEMP:  51; 6HR MAX TEMP:  70; 6HR PCP:  0.04;

PINE BLUFFS    MOCLDY    46  45  93 N20       30.14R

$$



USA.gov is the U.S. government's official web portal to all federal, state and local government web resources and services.